Location: Devils Tower National Monument
(44.5904°N, 104.7201°W)
Time: 08:16:24
(UTC-07:00)

Envisat - Pass Details

Date: 27 January 2020
Orbit: 764 x 766 km, 98.1° (Epoch: 17 February)

Event Time Altitude Azimuth Distance (km) Brightness Sun altitude
Rises 17:34:00 0° 160° (SSE) 3,217 6.2 -6.4°
Reaches altitude 10° 17:36:18 10° 159° (SSE) 2,294 5.5 -6.8°
Maximum altitude 17:41:21 77° 74° (ENE) 789 3.0 -7.6°
Drops below altitude 10° 17:46:26 10° 350° (N) 2,310 5.4 -8.5°
Sets 17:48:45 0° 349° (NNW) 3,241 6.2 -8.9°
